Starlink 34810

operational
NORAD ID: 65068 Int'l Des: 2025-165 Owner: SPXS Country: US Constellation: starlink
LEOCIRCULARRETROGRADESSO

Über Starlink 34810

Beschreibung wird geladen...

Live-Position

3D-Globus wird geladen...

Nächste Überflüge

Höhenverlauf

Altitude vs Time

uPlot chart will show altitude changes over time

Zweizeiliger Elementsatz

1 65068U 25165N 26063.14354678 .00009588 00000-0 66754-3 0 9990
2 65068 97.6046 141.7274 0001686 84.0094 276.1325 15.05664395 33951
Epoch: 4. März 2026 • Age: 22 hours

Aktueller Status

Höhe 553.2 km
Geschwindigkeit 7.59 km/s
Subsatellitenpunkt 32.57°N, 159.94°W
Startdatum 31. Juli 2025
Alter 0.5 years
Typ internet

Technische Details

Klassifizierung Payload
Masse 575.00 kg
Trockenmasse 530.00 kg
Gesamtmasse 575.00 kg
Länge 0.30 m
Durchmesser 4.10 m
Spannweite 29.00 m
Form Box + pan
Hersteller SPXS
Bus-Typ Starlink V2MO
Phasenstatus In Orbit
Besitzer/Staat SPXS/US

Große Konstellationen

Loading constellations...